Regional Weather Roundup
Issued by NWS Burlington, VT

Home | Current Version | Previous Version | Text Only | Print | Product List | Glossary On
Versions: 1 2 3 4 5 6 7 8 9 10 11 12 13 14 15 16 17 18 19 20 21 22 23 24 25 26 27 28 29 30 31 32 33 34 35 36 37 38 39 40 41 42 43 44 45 46 47 48 49 50
000
ASUS41 KBTV 290310
RWRBTV
VERMONT REGIONAL WEATHER ROUNDUP
NATIONAL WEATHER SERVICE BURLINGTON VT
1100 PM EDT WED JUN 28 2017

NOTE: "FAIR" INDICATES FEW OR NO CLOUDS BELOW 12,000 FEET WITH NO
SIGNIFICANT WEATHER AND/OR OBSTRUCTIONS TO VISIBILITY.

* THESE REPORTS ARE NOT UNDER NWS QUALITY CONTROL AND/OR DO NOT
  REPORT WEATHER SUCH AS PRECIPITATION AND FOG.

VTZ001>019-290400-
_____VERMONT_____


CITY           SKY/WX    TMP DP  RH WIND       PRES   REMARKS
BURLINGTON     PTCLDY    61  55  81 S5        30.03R
MONTPELIER     CLEAR     53  52  96 CALM      30.10R
MORRISVILLE    CLEAR     52  52 100 VRB3      30.07R
ST. JOHNSBURY*   N/A     56  56 100 MISG      30.04F
LYNDONVILLE*   FAIR      55  53  92 CALM      30.08F
MIDDLEBURY*    FAIR      58  51  76 CALM      30.05R
RUTLAND*       CLEAR     59  52  77 SE8       30.08R
SPRINGFIELD    CLEAR     55  51  86 CALM      30.08R
HIGHGATE*      CLOUDY    58  56  94 CALM      30.01S
NEWPORT*       FAIR      53  52  96 S3        30.05S
BENNINGTON     PTCLDY    54  50  86 S3        30.09S

_____LAKE CHAMPLAIN_____


CITY           SKY/WX    TMP DP  RH WIND       PRES   REMARKS
COLCHESTER RF*   N/A     68  54  60 S7          N/A

$$

NYZ007-026>031-035-052-083-087-290400-
_____NORTHERN NEW YORK_____


CITY           SKY/WX    TMP DP  RH WIND       PRES   REMARKS
PLATTSBURGH    CLOUDY    63  50  62 CALM      30.01S
SARANAC LAKE   CLOUDY    48  47  96 CALM      30.06R
MASSENA        CLOUDY    57  56  96 S5        30.01R
OGDENSBURG*    FAIR      61  55  79 SW3       30.00F
POTSDAM*       CLEAR     61  54  77 SW6       30.01F
WATERTOWN      CLOUDY    61  52  72 CALM      30.02S
FT DRUM        CLOUDY    61  50  67 S6        30.03S
ALBANY         CLOUDY    63  53  70 CALM      30.07S
GLENS FALLS    CLEAR     54  51  90 CALM      30.06S

$$
NHZ002-005-011-290400-
_____NEW HAMPSHIRE_____


CITY           SKY/WX    TMP DP  RH WIND       PRES   REMARKS
LEBANON        CLEAR     54  52  93 S3        30.05S
KEENE          CLEAR     55  53  93 CALM      30.09R
MT WASHINGTON  FOG       41  41 100 W30         N/A  VSB 0   WCI  30
PLYMOUTH       FAIR      55  53  95 CALM      30.06S
WHITEFIELD     RAIN      56  51  84 VRB5G17   30.09R

$$

_____REGIONAL QUEBEC LOCATIONS_____


CITY           SKY/WX    TMP DP  RH WIND       PRES   REMARKS
MONTREAL       PTCLDY    63  57  82 SW13      29.97F
QUEBEC CITY    MOCLDY    55  52  88 N6        29.96R
SHERBROOKE     PTCLDY    55  54  94 S6        30.01S

_____REGIONAL ONTARIO LOCATIONS_____


CITY           SKY/WX    TMP DP  RH WIND       PRES   REMARKS
OTTAWA         PTCLDY    59  57  94 S6        29.97S

______KEY______
VSB  - VISIBILITY IN MILES
WCI  - WIND CHILL INDEX
HX   - HEAT INDEX
$$
NNNN




USA.gov is the U.S. government's official web portal to all federal, state and local government web resources and services.